Preview of NWS' New Version of Forecast
This preview is not operational and should not be used for support decisions.

Regional Weather Roundup (RWR)

Issued by National Weather Service (NWS)

                            
000
ASUS45 KBOI 172210
RWRID 

IDAHO REGIONAL WEATHER ROUNDUP
NATIONAL WEATHER SERVICE BOISE ID
400 PM MDT WED APR 17 2019

NOTE: "FAIR" INDICATES FEW OR NO CLOUDS BELOW 12000 FEET
WITH NO SIGNIFICANT WEATHER AND/OR OBSTRUCTIONS TO VISIBILITY

IDZ012-014-172300-
SOUTHWEST IDAHO

  
CITY           SKY/WX    TMP DP  RH WIND       PRES   REMARKS
BOISE          MOSUNNY   60  38  43 NW16G22   30.24S                  
CALDWELL       MOSUNNY   64  42  44 NW12      30.25S                  
MOUNTAIN HOME  MOSUNNY   62  39  42 NW20G28   30.22S                  
$$

IDZ016-017-172300-
SOUTHCENTRAL IDAHO

  
CITY           SKY/WX    TMP DP  RH WIND       PRES   REMARKS
BURLEY         MOSUNNY   59  34  39 W16G29    30.18S                  
JEROME         SUNNY     59  36  42 SW24G33   30.20R                  
TWIN FALLS     SUNNY     58  35  42 W22G31    30.21S                  
$$

IDZ019>023-172300-
SOUTHEAST IDAHO

  
CITY           SKY/WX    TMP DP  RH WIND       PRES   REMARKS
IDAHO FALLS    MOSUNNY   56  33  42 SW15G25   30.15S                  
POCATELLO      PTSUNNY   59  33  37 W15G30    30.17S                  
REXBURG        MOSUNNY   54  31  41 SW12G20   30.13F                  
$$

IDZ006-010-011-018-031-032-172300-
CENTRAL IDAHO MOUNTAINS

  
CITY           SKY/WX    TMP DP  RH WIND       PRES   REMARKS
MCCALL         PTSUNNY   42  32  67 S5        30.24S                  
HAILEY         MOSUNNY   57  30  35 SW9       30.15S                  
STANLEY          N/A     44  27  51 N6        30.24R                  
SALMON         SUNNY     57  31  37 N14G21    30.16S                  
CHALLIS        PTSUNNY   59  26  28 W9G20     30.16S                  
$$

IDZ002-004-006-007-026-172300-
NORTHERN IDAHO

  
CITY           SKY/WX    TMP DP  RH WIND       PRES   REMARKS
LEWISTON       CLOUDY    61  39  44 W9G20     30.23R                  
LOWELL           N/A     55  50  83 N3        30.25                   
COEUR D'ALENE  PTSUNNY   57  35  43 SW18G29   30.17R                  
MULLAN PASS    CLOUDY    36  30  79 W8G18     30.17R WCI  30          
$$